Squamish, British Columbia

4:46 PM PDT on August 23, 2017 (GMT -0700)
Squamish

Weather History for CWSK - October, 2013

Change the Weather History Date:

Sunday, October 20, 2013

  Actual Average Record
Temperature  
Mean Temperature 46 °F -  
Max Temperature 57 °F - - ()
Min Temperature 35 °F - - ()
Degree Days  
Heating Degree Days 19    
Moisture  
Dew Point 42 °F    
Average Humidity 89    
Maximum Humidity 100    
Minimum Humidity 58    
Precipitation  
Precipitation 0.00 in - - ()
Sea Level Pressure  
Sea Level Pressure 30.18 in    
Wind  
Wind Speed 2 mph ()    
Max Wind Speed 8 mph    
Max Gust Speed -    
T = Trace of Precipitation, MM = Missing Value Source: Averaged Metar Reports

Daily Weather History Graph

Daily Weather History Graph

Search for Another Location

Airport or City:

Trip Planner

Search our weather history database for the weather conditions in past years. The results will help you decide how hot, cold, wet, or windy it might be!

Date:

Astronomy

Oct. 20, 2013 Rise Set
Actual Time 7:42 AM PDT 6:11 PM PDT
Civil Twilight 7:10 AM PDT 6:43 PM PDT
Nautical Twilight 6:32 AM PDT 7:21 PM PDT
Astronomical Twilight 5:55 AM PDT 7:58 PM PDT
Moon 7:11 PM PDT (10/20) 9:36 AM PDT (10/20)
Length of Visible Light 11h 33m
Length of Day
10h 28m
Waning Gibbous, 97% of the Moon is Illuminated
Oct 20
Waning Gibbous
Oct 26
Last Quarter
Nov 3
New
Nov 9
First Quarter
Nov 17
Full

Hourly Weather History & Observations

Time (PDT) Temp. Dew Point Humidity Pressure Visibility Wind Dir Wind Speed Gust Speed Precip Events Conditions
12:00 AM 40.8 °F 39.9 °F 97% 30.20 in - NE 1.2 mph - N/A   Unknown
1:00 AM 40.1 °F 39.2 °F 97% 30.20 in - NNE 2.3 mph - N/A   Unknown
2:00 AM 39 °F 38 °F 94% 30.20 in - North 1.2 mph - -  
2:00 AM 38.7 °F 37.9 °F 97% 30.20 in - North 1.2 mph - N/A   Unknown
3:00 AM 38.1 °F 37.4 °F 97% 30.21 in - WSW 1.2 mph - N/A   Unknown
4:00 AM 37.4 °F 36.9 °F 98% 30.20 in - North 1.2 mph - N/A   Unknown
5:00 AM 37 °F 37 °F 99% 30.19 in - NNE 1.2 mph - -  
5:00 AM 37.4 °F 36.9 °F 98% 30.19 in - NNE 1.2 mph - N/A   Unknown
6:00 AM 37.4 °F 36.9 °F 98% 30.20 in - NNE 1.2 mph - N/A   Unknown
7:00 AM 36.5 °F 36.0 °F 98% 30.20 in - NNE 2.3 mph - N/A   Unknown
8:00 AM 36 °F 36 °F 100% 30.21 in - NNW 2.3 mph - -  
8:00 AM 36.5 °F 36.1 °F 99% 30.21 in - NNW 2.3 mph - N/A   Unknown
9:00 AM 38.3 °F 38.3 °F 100% 30.22 in - NNE 2.3 mph - N/A   Unknown
10:00 AM 44.8 °F - N/A% 30.21 in - North 1.2 mph - N/A   Unknown
11:00 AM 50 °F 45 °F 78% 30.20 in - NW 2.3 mph - -  
11:00 AM 50.4 °F 45.1 °F 82% 30.20 in - NW 2.3 mph - N/A   Unknown
12:00 PM 56.3 °F 45.9 °F 68% 30.18 in - SSE 2.3 mph - N/A   Unknown
1:00 PM 54.5 °F 45.9 °F 73% 30.17 in - SSE 6.9 mph - N/A   Unknown
2:00 PM 57 °F 46 °F 58% 30.15 in - South 8.1 mph - -  
2:00 PM 56.7 °F 46.4 °F 69% 30.15 in - South 8.1 mph - N/A   Unknown
3:00 PM 56.8 °F 46.9 °F 69% 30.14 in - SSE 6.9 mph - N/A   Unknown
4:00 PM 55.6 °F 46.4 °F 71% 30.14 in - South 6.9 mph - N/A   Unknown
5:00 PM 52 °F 47 °F 76% 30.14 in - SE 3.5 mph - -  
5:00 PM 52.2 °F 46.6 °F 81% 30.14 in - SE 3.5 mph - N/A   Unknown
6:00 PM 48.2 °F 45.5 °F 90% 30.14 in - ENE 1.2 mph - N/A   Unknown
7:00 PM 45.9 °F 44.1 °F 93% 30.15 in - ENE 1.2 mph - N/A   Unknown
8:00 PM 44 °F 43 °F 94% 30.17 in - Calm Calm - -  
8:00 PM 44.2 °F 42.8 °F 95% 30.17 in - Calm Calm - N/A   Unknown
9:00 PM 43.0 °F 41.7 °F 95% 30.17 in - Calm Calm - N/A   Unknown
10:00 PM 42.6 °F 41.5 °F 96% 30.18 in - NE 2.3 mph - N/A   Unknown
11:00 PM 42 °F 41 °F 96% 30.18 in - NE 2.3 mph - -  
11:00 PM 42.3 °F 41.2 °F 96% 30.18 in - NE 2.3 mph - N/A   Unknown